Change the Weather History Date:

Tuesday, August 13, 2013

  Actual Average Record
Temperature  
Mean Temperature 81 °F -  
Max Temperature 90 °F 94 °F 110 °F (1969)
Min Temperature 73 °F 70 °F 58 °F (1967)
Cooling Degree Days 16    
Growing Degree Days 31 (Base 50)    
Moisture  
Dew Point 70 °F    
Average Humidity 72    
Maximum Humidity 85    
Minimum Humidity 51    
Precipitation  
Precipitation 0.00 in - - ()
Sea Level Pressure  
Sea Level Pressure 29.98 in    
Wind  
Wind Speed 8 mph (NE)    
Max Wind Speed 17 mph    
Max Gust Speed 22 mph    
Visibility 10 miles    
Events Thunderstorm    
Averages and records for this station are not official NWS values.
T = Trace of Precipitation, MM = Missing Value Source: NWS Daily Summary

Daily Weather History Graph

Daily Weather History Graph

Search for Another Location

Airport or City:

Trip Planner

Search our weather history database for the weather conditions in past years. The results will help you decide how hot, cold, wet, or windy it might be!

Date:

Astronomy

Aug. 13, 2013 Rise Set
Actual Time 6:53 AM CDT 8:23 PM CDT
Civil Twilight 6:26 AM CDT 8:49 PM CDT
Nautical Twilight 5:54 AM CDT 9:21 PM CDT
Astronomical Twilight 5:20 AM CDT 9:55 PM CDT
Moon 1:29 PM CDT (8/13) No Moon Set
Length of Visible Light 14h 23m
Length of Day
13h 30m
Waxing Crescent, 42% of the Moon is Illuminated
Aug 13
Waxing Crescent
Aug 14
First Quarter
Aug 20
Full
Aug 28
Last Quarter
Sep 5
New

Hourly Weather History & Observations

Time (CDT) Temp. Heat Index Dew Point Humidity Pressure Visibility Wind Dir Wind Speed Gust Speed Precip Events Conditions
12:53 AM 78.1 °F - 69.1 °F 74% 29.96 in 10.0 mi ESE 4.6 mph - N/A   Scattered Clouds
1:53 AM 77.0 °F - 70.0 °F 79% 29.93 in 10.0 mi ESE 5.8 mph - N/A   Clear
2:53 AM 75.9 °F - 69.1 °F 79% 29.91 in 10.0 mi ESE 3.5 mph - N/A   Clear
3:53 AM 73.9 °F - 69.1 °F 85% 29.90 in 10.0 mi Calm Calm - N/A   Clear
4:53 AM 73.9 °F - 69.1 °F 85% 29.91 in 7.0 mi North 6.9 mph - N/A   Clear
5:53 AM 75.9 °F - 70.0 °F 82% 29.94 in 10.0 mi North 13.8 mph - N/A   Partly Cloudy
6:53 AM 75.0 °F - 70.0 °F 84% 29.96 in 10.0 mi NNE 12.7 mph - N/A   Scattered Clouds
7:53 AM 75.9 °F - 70.0 °F 82% 29.97 in 10.0 mi NNE 15.0 mph 19.6 mph N/A   Clear
8:53 AM 75.9 °F - 69.1 °F 79% 30.01 in 10.0 mi NE 11.5 mph - N/A   Overcast
9:53 AM 77.0 °F - 69.1 °F 76% 30.02 in 10.0 mi NE 10.4 mph - N/A   Partly Cloudy
10:54 AM 80.1 °F 83.6 °F 71.1 °F 74% 30.04 in - East 13.8 mph - N/A   Unknown
11:53 AM 82.9 °F 87.5 °F 71.1 °F 67% 30.02 in 10.0 mi East 17.3 mph 21.9 mph N/A Thunderstorm Mostly Cloudy
12:10 PM 82.4 °F 87.2 °F 71.6 °F 70% 30.06 in 10.0 mi ESE 13.8 mph - N/A   Mostly Cloudy
12:53 PM 82.9 °F 87.0 °F 70.0 °F 65% 30.02 in 10.0 mi East 8.1 mph - N/A   Overcast
1:53 PM 82.0 °F 85.9 °F 70.0 °F 67% 30.01 in 10.0 mi North 9.2 mph - N/A   Partly Cloudy
2:53 PM 84.0 °F 88.4 °F 70.0 °F 63% 29.99 in 10.0 mi North 6.9 mph - N/A   Clear
3:53 PM 88.0 °F 93.8 °F 71.1 °F 57% 29.96 in 10.0 mi NNE 5.8 mph - N/A   Mostly Cloudy
4:53 PM 89.1 °F 95.0 °F 71.1 °F 55% 29.94 in 10.0 mi North 5.8 mph - N/A   Mostly Cloudy
5:53 PM 88.0 °F 91.4 °F 68.0 °F 51% 29.94 in 10.0 mi North 11.5 mph - N/A   Clear
6:53 PM 87.1 °F 92.0 °F 70.0 °F 57% 29.94 in 10.0 mi NNE 10.4 mph - N/A   Clear
7:53 PM 84.0 °F 87.8 °F 69.1 °F 61% 29.96 in 10.0 mi NNE 11.5 mph - N/A   Clear
8:53 PM 81.0 °F 84.4 °F 70.0 °F 69% 29.96 in 10.0 mi ENE 5.8 mph - N/A   Clear
9:53 PM 79.0 °F - 70.0 °F 74% 29.99 in 10.0 mi NE 5.8 mph - N/A   Clear
10:53 PM 78.1 °F - 71.1 °F 79% 30.02 in 10.0 mi ENE 5.8 mph - N/A   Clear
11:53 PM 77.0 °F - 71.1 °F 82% 30.02 in 10.0 mi NE 9.2 mph - N/A   Partly Cloudy